Regional Weather Roundup
Issued by NWS

Home | Current Version | Previous Version | Graphics & Text | Print | Product List | Glossary On
Versions: 1 2 3 4 5 6 7 8 9 10 11 12 13 14 15 16 17 18 19 20 21 22 23 24 25 26 27 28 29 30 31 32 33 34 35 36 37 38 39 40 41 42 43 44 45 46 47 48 49 50
000
ASUS45 KBOU 251907
RWRCO

WEATHER ROUNDUP FOR COLORADO
NATIONAL WEATHER SERVICE DENVER/BOULDER CO
100 PM MDT SAT APR 25 2015

NOTE: "FAIR" INDICATES FEW OR NO CLOUDS BELOW 12000 FEET WITH NO
SIGNIFICANT WEATHER AND/OR OBSTRUCTIONS TO VISIBILITY.

COZ001>005-013-030-031-252000-
...NORTHWEST COLORADO...

CITY           SKY/WX    TMP DP  RH WIND       PRES   REMARKS
CRAIG          CLOUDY    46  39  76 E6        29.86F
HAYDEN         PTSUNNY   39  34  81 CALM      29.86F
MEEKER         PTSUNNY   45  36  70 CALM      29.86F
MOUNT WERNER   NOT AVBL
STEAMBOAT SPGS CLOUDY    37  34  88 NE5       29.89F
WALDEN         CLOUDY    46  28  49 SW7G18    29.84R
$$

COZ006>008-011-252000-
...WEST CENTRAL VALLEYS...

CITY           SKY/WX    TMP DP  RH WIND       PRES   REMARKS
GRAND JUNCTION PTSUNNY   52  41  66 VRB5      29.84F
MONTROSE       PTSUNNY   51  40  65 N15G22    29.87F
EAGLE          PTSUNNY   48  37  66 SW16G22   29.87R
RIFLE          PTSUNNY   46  37  71 S5        29.88F
DELTA          CLOUDY    55  41  59 MISG      29.85F
NUCLA          DRIZZLE   45  41  87 N8        29.90F
$$

COZ017>023-064>068-252000-
...SOUTHWEST COLORADO...

CITY           SKY/WX    TMP DP  RH WIND       PRES   REMARKS
DURANGO        CLOUDY    53  34  48 VRB3      29.90F
CORTEZ         PTSUNNY   54  42  64 SW22      29.90F
PAGOSA SPRINGS CLOUDY    41  35  79 N6        29.95F
TELLURIDE      CLOUDY    45  26  49 SE5       29.93S
WOLF CREEK PAS NOT AVBL
$$

COZ009-010-012-014-032>034-037-058>063-252000-
...CENTRAL COLORADO...

CITY           SKY/WX    TMP DP  RH WIND       PRES   REMARKS
ASPEN          LGT RAIN  46  34  62 N15G23    29.86R
BUENA VISTA    PTSUNNY   52  21  29 W14       29.84F
COPPER MTN     CLOUDY    37  21  52 SW8       29.97F
BERTHOUD PASS  CLOUDY    30  21  69 NW16      30.00S WCI  19
COTTONWOOD PAS PTSUNNY   48  21  34 W7        29.91F
GUNNISON       PTSUNNY   46  30  53 SW16G25   29.91S
KREMMLING      CLOUDY    52  27  37 W10G18    29.84S
LEADVILLE      CLOUDY    38  23  55 S14       29.88F
MONARCH PASS   CLOUDY    32  23  69 SW21      30.08F WCI  20
SALIDA         CLOUDY    58  22  24 S6        29.90F
SUNLIGHT       LGT SNOW  34  32  93 CALM      29.98S VSB 1
WILKERSON PASS PTSUNNY   41  23  48 SW9G18    29.97S
$$

COZ069>075-252000-
...SAN LUIS VALLEY/SANGRE DE CRISTO MOUNTAINS...

CITY           SKY/WX    TMP DP  RH WIND       PRES   REMARKS
ALAMOSA        CLOUDY    58  24  27 S12       29.86F
LA VETA PASS   MOSUNNY   46  25  42 S9G18     29.93F
SAGUACHE       MOSUNNY   52  28  40 S7        29.88F
$$

COZ035-036-038>040-252000-
...NORTHERN COLORADO FRONT RANGE...

CITY           SKY/WX    TMP DP  RH WIND       PRES   REMARKS
DENVER INTL AP PTSUNNY   65  27  23 E10       29.71F
DMNS CITY PARK   N/A     68  24  19 SE8       29.69F
AURORA         PTSUNNY   66  24  20 E8G18     29.71F
FRONT RANGE AP PTSUNNY   68  27  21 E9G16     29.72F
ERIE MUNI ARPT PTSUNNY   66  25  21 E6        29.70S
BOULDER MUN AP CLOUDY    64  30  27 E5        29.70F
CENTENNIAL     PTSUNNY   66  23  19 E9        29.71F
BROOMFIELD     PTSUNNY   64  27  24 E7        29.72F
FORT COLLINS   PTSUNNY   64  34  32 E10       29.72S
LONGMONT       PTSUNNY   69  30  23 N3        29.72S
$$

COZ041-046-047-076>085-087-088-252000-
...PIKES PEAK/PALMER DIVIDE AND SOUTHERN FOOTHILLS...

CITY           SKY/WX    TMP DP  RH WIND       PRES   REMARKS
COLO. SPRINGS  PTSUNNY   64  23  21 SE9G17    29.75F
A. F. ACADEMY  MOSUNNY   62  18  18 SE9G18    29.75F
ELLICOTT       MOSUNNY  N/A N/A N/A SE7G16    29.75F
FALCON         MOSUNNY   64  17  16 S8        29.79F
FORT CARSON    NOT AVBL
LIMON          SUNNY     67  30  25 SE13      29.74F
MONUMENT HILL  PTSUNNY   59  23  25 S10       29.77F
TRINIDAD       SUNNY     69  22  16 E12       29.74F
$$

COZ042>045-048>051-090-091-252000-
...NORTHEAST COLORADO...

CITY           SKY/WX    TMP DP  RH WIND       PRES   REMARKS
GREELEY ARPT   PTSUNNY   66  34  30 SE12G17   29.72S
AKRON          SUNNY     68  35  29 NE9       29.72F
BURLINGTON     SUNNY     69  41  36 N14       29.73S
WRAY           SUNNY     69  41  36 N5        29.71S
STERLING       SUNNY     70  41  35 E6        29.70F
HOLYOKE        SUNNY     68  45  42 NE6       29.71F
FORT MORGAN    MOSUNNY   68  29  23 SE5       29.72S
$$

COZ086-089-092>099-252000-
...SOUTHEAST COLORADO...

CITY           SKY/WX    TMP DP  RH WIND       PRES   REMARKS
PUEBLO         SUNNY     70  22  16 S10       29.69F
LA JUNTA       SUNNY     73  24  16 VRB3      29.70F
LAMAR          SUNNY     73  28  18 VRB6      29.68F
SPRINGFIELD      N/A     70  25  18 VRB3      29.72F
$$



USA.gov is the U.S. government's official web portal to all federal, state and local government web resources and services.